{"data":{"norad_id":56037,"epoch":"2026-09-20T08:30:54.472896Z","epoch_age_seconds":118643,"freshness":"FRESH","line1":"1 56037U 23042BD  26263.35479714 -.00000161  00000+0  37004-5 0  9998","line2":"2 56037  43.0057  11.3841 0001775 275.0642  85.0007 15.27574859192977","mean_motion":15.27574859,"eccentricity":0.0001775,"inclination_deg":43.0057,"raan_deg":11.3841,"arg_perigee_deg":275.0642,"mean_anomaly_deg":85.0007,"bstar":3.7004e-6,"rev_number":19297,"period_min":94.267065965112,"perigee_km":481.8466268218,"apogee_km":484.28235335078,"semimajor_km":6861.2014900863,"source":"CELESTRAK","updated_at":"2026-09-21T09:00:33.360367Z"}}